Time,TemperatureF,DewpointF,PressureIn,WindDirection,WindDirectionDegrees,WindSpeedMPH,WindSpeedGustMPH,Humidity,HourlyPrecipIn,Conditions,Clouds,dailyrainin,SoftwareType,DateUTC
2013-04-12 00:00:00,38.1,31.0,29.68,SW,229,8.0,8.0,76,0.00,,,0.00,weatherlink.com 1.10,2013-04-12 05:00:00,
2013-04-12 00:15:00,38.1,32.0,29.68,WSW,257,6.0,10.0,77,0.00,,,0.00,weatherlink.com 1.10,2013-04-12 05:15:00,
2013-04-12 00:30:00,38.1,31.0,29.68,West,271,8.0,11.0,76,0.00,,,0.00,weatherlink.com 1.10,2013-04-12 05:30:00,
2013-04-12 00:45:00,38.1,32.0,29.68,West,263,3.0,8.0,77,0.00,,,0.00,weatherlink.com 1.10,2013-04-12 05:45:00,
2013-04-12 01:00:00,38.0,32.0,29.68,WSW,243,7.0,8.0,78,0.00,,,0.00,weatherlink.com 1.10,2013-04-12 06:00:00,
2013-04-12 01:15:00,38.1,32.0,29.68,SW,233,5.0,12.0,77,0.00,,,0.00,weatherlink.com 1.10,2013-04-12 06:15:00,
2013-04-12 01:30:00,38.1,32.0,29.68,West,273,3.0,8.0,77,0.00,,,0.00,weatherlink.com 1.10,2013-04-12 06:30:00,
2013-04-12 01:45:00,38.0,31.0,29.68,West,280,2.0,7.0,77,0.00,,,0.00,weatherlink.com 1.10,2013-04-12 06:45:00,
2013-04-12 02:00:00,38.1,32.0,29.68,WNW,287,4.0,8.0,78,0.00,,,0.00,weatherlink.com 1.10,2013-04-12 07:00:00,
2013-04-12 02:15:00,38.1,32.0,29.68,West,267,4.0,9.0,78,0.00,,,0.00,weatherlink.com 1.10,2013-04-12 07:15:00,
2013-04-12 02:30:00,38.0,32.0,29.67,WNW,287,5.0,8.0,78,0.00,,,0.00,weatherlink.com 1.10,2013-04-12 07:30:00,
2013-04-12 02:45:00,38.1,32.0,29.67,WSW,242,7.0,10.0,78,0.00,,,0.00,weatherlink.com 1.10,2013-04-12 07:45:00,
2013-04-12 03:00:00,38.1,32.0,29.66,WSW,255,4.0,11.0,79,0.00,,,0.00,weatherlink.com 1.10,2013-04-12 08:00:00,
2013-04-12 03:15:00,38.1,32.0,29.66,WSW,238,5.0,10.0,78,0.00,,,0.00,weatherlink.com 1.10,2013-04-12 08:15:00,
2013-04-12 03:30:00,38.0,32.0,29.66,WSW,239,7.0,10.0,79,0.00,,,0.00,weatherlink.com 1.10,2013-04-12 08:30:00,
2013-04-12 03:45:00,37.9,32.0,29.66,SW,233,4.0,12.0,78,0.00,,,0.00,weatherlink.com 1.10,2013-04-12 08:45:00,
2013-04-12 04:00:00,38.0,32.0,29.66,WNW,290,6.0,8.0,79,0.00,,,0.00,weatherlink.com 1.10,2013-04-12 09:00:00,
2013-04-12 04:15:00,37.9,32.0,29.66,WNW,283,4.0,11.0,79,0.00,,,0.00,weatherlink.com 1.10,2013-04-12 09:15:00,
2013-04-12 04:30:00,37.8,32.0,29.66,WNW,287,7.0,10.0,80,0.00,,,0.00,weatherlink.com 1.10,2013-04-12 09:30:00,
2013-04-12 04:45:00,37.8,32.0,29.66,WNW,285,6.0,13.0,80,0.00,,,0.00,weatherlink.com 1.10,2013-04-12 09:45:00,
2013-04-12 05:00:00,37.7,32.0,29.66,West,271,5.0,12.0,80,0.00,,,0.00,weatherlink.com 1.10,2013-04-12 10:00:00,
2013-04-12 05:15:00,37.6,32.0,29.66,WNW,288,8.0,12.0,81,0.00,,,0.00,weatherlink.com 1.10,2013-04-12 10:15:00,
2013-04-12 05:30:00,37.7,32.0,29.66,West,278,4.0,12.0,81,0.00,,,0.00,weatherlink.com 1.10,2013-04-12 10:30:00,
2013-04-12 05:45:00,37.7,32.0,29.66,WSW,242,4.0,15.0,81,0.00,,,0.00,weatherlink.com 1.10,2013-04-12 10:45:00,
2013-04-12 06:00:00,37.6,32.0,29.66,West,278,5.0,12.0,81,0.00,,,0.00,weatherlink.com 1.10,2013-04-12 11:00:00,
2013-04-12 06:15:00,37.6,33.0,29.67,West,281,7.0,12.0,82,0.00,,,0.00,weatherlink.com 1.10,2013-04-12 11:15:00,
2013-04-12 06:30:00,37.6,32.0,29.67,WSW,246,7.0,10.0,81,0.00,,,0.00,weatherlink.com 1.10,2013-04-12 11:30:00,
2013-04-12 06:45:00,37.7,33.0,29.68,West,278,5.0,10.0,82,0.00,,,0.00,weatherlink.com 1.10,2013-04-12 11:45:00,
2013-04-12 07:00:00,37.7,32.0,29.69,WNW,283,8.0,20.0,81,0.00,,,0.00,weatherlink.com 1.10,2013-04-12 12:00:00,
2013-04-12 07:15:00,37.9,32.0,29.69,WNW,290,6.0,15.0,80,0.00,,,0.00,weatherlink.com 1.10,2013-04-12 12:15:00,
2013-04-12 07:30:00,37.9,32.0,29.70,West,264,8.0,21.0,79,0.00,,,0.00,weatherlink.com 1.10,2013-04-12 12:30:00,
2013-04-12 07:45:00,38.0,32.0,29.71,WNW,292,6.0,18.0,79,0.00,,,0.00,weatherlink.com 1.10,2013-04-12 12:45:00,
2013-04-12 08:00:00,38.1,32.0,29.70,West,271,8.0,10.0,79,0.00,,,0.00,weatherlink.com 1.10,2013-04-12 13:00:00,
2013-04-12 08:15:00,38.1,32.0,29.71,SW,217,6.0,11.0,79,0.00,,,0.00,weatherlink.com 1.10,2013-04-12 13:15:00,
2013-04-12 08:30:00,38.2,32.0,29.71,WSW,240,11.0,15.0,77,0.00,,,0.00,weatherlink.com 1.10,2013-04-12 13:30:00,
2013-04-12 08:46:00,38.3,32.0,29.72,WSW,257,7.0,16.0,78,0.00,,,0.00,weatherlink.com 1.10,2013-04-12 13:46:00,
2013-04-12 09:01:00,38.1,32.0,29.72,West,260,4.0,18.0,79,0.00,,,0.00,weatherlink.com 1.10,2013-04-12 14:01:00,
2013-04-12 09:16:00,38.4,32.0,29.73,WNW,285,8.0,13.0,79,0.00,,,0.00,weatherlink.com 1.10,2013-04-12 14:16:00,
2013-04-12 09:31:00,38.2,33.0,29.73,NW,305,8.0,18.0,81,0.00,,,0.00,weatherlink.com 1.10,2013-04-12 14:31:00,
2013-04-12 09:46:00,37.7,33.0,29.73,WNW,283,5.0,16.0,84,0.00,,,0.00,weatherlink.com 1.10,2013-04-12 14:46:00,
2013-04-12 10:01:00,38.2,33.0,29.73,WSW,245,12.0,18.0,81,0.00,,,0.00,weatherlink.com 1.10,2013-04-12 15:01:00,
2013-04-12 10:16:00,38.8,34.0,29.74,SW,229,16.0,16.0,82,0.00,,,0.00,weatherlink.com 1.10,2013-04-12 15:16:00,
2013-04-12 10:31:00,38.6,33.0,29.75,NNW,330,7.0,18.0,81,0.00,,,0.00,weatherlink.com 1.10,2013-04-12 15:31:00,
2013-04-12 10:46:00,38.8,33.0,29.75,WNW,291,3.0,22.0,80,0.00,,,0.00,weatherlink.com 1.10,2013-04-12 15:46:00,
2013-04-12 11:01:00,39.3,34.0,29.76,WNW,291,7.0,20.0,80,0.00,,,0.00,weatherlink.com 1.10,2013-04-12 16:01:00,
2013-04-12 11:31:00,40.2,34.0,29.77,NW,307,12.0,16.0,78,0.00,,,0.00,weatherlink.com 1.10,2013-04-12 16:31:00,
2013-04-12 11:46:00,40.4,34.0,29.78,WNW,288,9.0,18.0,78,0.00,,,0.00,weatherlink.com 1.10,2013-04-12 16:46:00,
2013-04-12 12:01:00,40.2,34.0,29.79,WNW,291,9.0,19.0,78,0.00,,,0.00,weatherlink.com 1.10,2013-04-12 17:01:00,
2013-04-12 12:16:00,40.2,34.0,29.80,WNW,302,7.0,17.0,79,0.00,,,0.00,weatherlink.com 1.10,2013-04-12 17:16:00,
2013-04-12 12:46:00,40.0,34.0,29.80,NW,309,7.0,20.0,79,0.00,,,0.00,weatherlink.com 1.10,2013-04-12 17:46:00,
2013-04-12 13:01:00,40.3,34.0,29.80,West,262,8.0,22.0,78,0.00,,,0.00,weatherlink.com 1.10,2013-04-12 18:01:00,
2013-04-12 15:01:00,41.3,35.0,29.85,SW,231,12.0,15.0,77,0.00,,,0.00,weatherlink.com 1.10,2013-04-12 20:01:00,
2013-04-12 15:16:00,42.4,35.0,29.85,WNW,291,5.0,13.0,76,0.00,,,0.00,weatherlink.com 1.10,2013-04-12 20:16:00,
2013-04-12 15:31:00,41.8,35.0,29.85,West,274,11.0,16.0,76,0.00,,,0.00,weatherlink.com 1.10,2013-04-12 20:31:00,
2013-04-12 15:46:00,42.1,35.0,29.86,WNW,290,9.0,15.0,76,0.00,,,0.00,weatherlink.com 1.10,2013-04-12 20:46:00,
2013-04-12 16:01:00,43.7,37.0,29.85,WNW,300,6.0,15.0,77,0.00,,,0.00,weatherlink.com 1.10,2013-04-12 21:01:00,
2013-04-12 16:16:00,43.4,35.0,29.86,WNW,291,10.0,18.0,72,0.00,,,0.00,weatherlink.com 1.10,2013-04-12 21:16:00,
2013-04-12 16:31:00,42.8,35.0,29.86,WNW,302,7.0,15.0,74,0.00,,,0.00,weatherlink.com 1.10,2013-04-12 21:31:00,
2013-04-12 16:46:00,42.7,35.0,29.87,WNW,293,6.0,14.0,74,0.00,,,0.00,weatherlink.com 1.10,2013-04-12 21:46:00,
2013-04-12 17:01:00,42.6,35.0,29.88,WNW,283,9.0,11.0,75,0.00,,,0.00,weatherlink.com 1.10,2013-04-12 22:01:00,
2013-04-12 17:17:00,42.8,34.0,29.89,West,278,8.0,18.0,72,0.00,,,0.00,weatherlink.com 1.10,2013-04-12 22:17:00,
2013-04-12 17:32:00,42.5,35.0,29.89,West,269,9.0,16.0,74,0.00,,,0.00,weatherlink.com 1.10,2013-04-12 22:32:00,
2013-04-12 17:47:00,43.0,35.0,29.89,WNW,293,8.0,14.0,73,0.00,,,0.00,weatherlink.com 1.10,2013-04-12 22:47:00,
2013-04-12 18:02:00,43.0,35.0,29.89,WSW,249,6.0,15.0,73,0.00,,,0.00,weatherlink.com 1.10,2013-04-12 23:02:00,
2013-04-12 18:17:00,42.8,35.0,29.89,West,267,8.0,17.0,73,0.00,,,0.00,weatherlink.com 1.10,2013-04-12 23:17:00,
2013-04-12 18:32:00,42.7,35.0,29.89,WNW,291,6.0,12.0,73,0.00,,,0.00,weatherlink.com 1.10,2013-04-12 23:32:00,
2013-04-12 18:47:00,42.6,35.0,29.90,West,273,6.0,10.0,74,0.00,,,0.00,weatherlink.com 1.10,2013-04-12 23:47:00,
2013-04-12 19:02:00,42.5,35.0,29.90,West,278,3.0,9.0,75,0.00,,,0.00,weatherlink.com 1.10,2013-04-13 00:02:00,
2013-04-12 19:17:00,42.3,35.0,29.90,WNW,303,7.0,12.0,74,0.00,,,0.00,weatherlink.com 1.10,2013-04-13 00:17:00,
2013-04-12 19:32:00,42.1,35.0,29.91,West,280,5.0,13.0,76,0.00,,,0.00,weatherlink.com 1.10,2013-04-13 00:32:00,
2013-04-12 19:47:00,41.8,35.0,29.91,WNW,285,9.0,10.0,77,0.00,,,0.00,weatherlink.com 1.10,2013-04-13 00:47:00,
2013-04-12 20:02:00,41.8,35.0,29.91,WNW,291,6.0,10.0,77,0.00,,,0.00,weatherlink.com 1.10,2013-04-13 01:02:00,
2013-04-12 20:17:00,41.7,35.0,29.91,WNW,295,3.0,9.0,77,0.00,,,0.00,weatherlink.com 1.10,2013-04-13 01:17:00,
2013-04-12 20:32:00,41.6,35.0,29.92,WNW,293,4.0,10.0,77,0.00,,,0.00,weatherlink.com 1.10,2013-04-13 01:32:00,
2013-04-12 20:47:00,41.6,35.0,29.92,West,277,4.0,10.0,77,0.00,,,0.00,weatherlink.com 1.10,2013-04-13 01:47:00,
2013-04-12 21:02:00,41.6,35.0,29.92,NW,304,7.0,8.0,77,0.00,,,0.00,weatherlink.com 1.10,2013-04-13 02:02:00,
2013-04-12 21:17:00,41.6,35.0,29.93,WNW,288,5.0,8.0,77,0.00,,,0.00,weatherlink.com 1.10,2013-04-13 02:17:00,
2013-04-12 21:32:00,41.5,34.0,29.93,WNW,293,8.0,11.0,75,0.00,,,0.00,weatherlink.com 1.10,2013-04-13 02:32:00,
2013-04-12 21:47:00,41.4,34.0,29.94,West,271,6.0,14.0,75,0.00,,,0.00,weatherlink.com 1.10,2013-04-13 02:47:00,
2013-04-12 22:02:00,41.3,34.0,29.94,NW,314,3.0,13.0,75,0.00,,,0.00,weatherlink.com 1.10,2013-04-13 03:02:00,
2013-04-12 22:17:00,41.1,34.0,29.95,West,263,6.0,8.0,76,0.00,,,0.00,weatherlink.com 1.10,2013-04-13 03:17:00,
2013-04-12 22:32:00,41.1,34.0,29.95,West,259,6.0,11.0,76,0.00,,,0.00,weatherlink.com 1.10,2013-04-13 03:32:00,
2013-04-12 22:47:00,41.0,34.0,29.95,West,261,6.0,11.0,75,0.00,,,0.00,weatherlink.com 1.10,2013-04-13 03:47:00,
2013-04-12 23:02:00,40.9,34.0,29.96,West,276,5.0,10.0,77,0.00,,,0.00,weatherlink.com 1.10,2013-04-13 04:02:00,
2013-04-12 23:17:00,40.7,34.0,29.95,WNW,300,5.0,10.0,76,0.00,,,0.00,weatherlink.com 1.10,2013-04-13 04:17:00,
2013-04-12 23:32:00,40.5,34.0,29.95,WSW,257,2.0,6.0,77,0.00,,,0.00,weatherlink.com 1.10,2013-04-13 04:32:00,
2013-04-12 23:47:00,40.4,33.0,29.96,WNW,284,6.0,7.0,75,0.00,,,0.00,weatherlink.com 1.10,2013-04-13 04:47:00,